RH
10 10 9 10 9 9 8 7 7 7 6 6 7 9 12 10 7 8 10 11 10 9 9 9 8 8 8 8 8 7 7 7 7 6 6 6 6 7 8 9 11 14 18 18 18 19 18 17 14 13 13 18 26 29 33 36 35 35 34 34 35 37 38 37 36 36 36 36 40 43 44 44 40 40 40 31 31 34 34 37 40 43 44 44 43 37 36 35
11 10 9 9 9 9 9 8 7 7 7 6 6 7 10 11 9 7 9 10 11 10 9 9 8 8 8 8 8 7 7 7 6 6 5 6 6 6 6 7 10 13 17 18 18 19 19 17 14 13 13 16 25 29 32 36 36 34 34 33 33 35 37 37 36 36 36 37 39 41 44 45 42 40 36 25 23 27 25 26 33 37 39 42 41 39 38 37
17 12 10 9 9 9 9 8 7 7 7 6 6 6 8 11 10 8 8 10 11 11 10 9 9 8 8 8 8 7 7 7 6 6 5 5 5 5 5 6 8 11 15 17 18 19 19 18 15 13 13 15 24 29 32 35 35 34 35 33 32 34 36 38 38 36 36 39 39 40 44 44 44 40 32 26 22 22 21 20 24 27 31 36 38 39 39 39
24 19 14 10 9 9 9 9 8 7 6 6 6 6 6 9 11 9 8 9 10 11 10 9 9 8 8 8 8 7 7 6 6 6 5 5 4 4 5 5 6 9 13 16 17 19 20 19 16 13 13 19 26 29 32 34 32 33 34 32 31 32 35 37 38 38 37 39 39 40 43 43 45 42 33 30 23 19 22 22 24 22 22 28 33 34 36 38
24 24 21 15 11 9 9 9 9 8 7 6 6 6 6 7 10 11 8 8 9 10 11 10 9 9 8 8 8 7 7 6 6 6 5 4 4 4 4 5 5 7 11 14 17 19 21 19 16 14 14 23 30 30 32 33 31 31 29 27 27 28 32 36 39 39 38 40 41 40 41 41 43 43 43 41 31 20 18 19 23 26 22 24 28 29 32 34
23 24 24 22 17 12 9 9 9 9 8 7 6 6 6 6 7 10 10 8 8 10 10 10 9 9 8 8 7 7 7 7 8 8 7 5 3 3 4 4 5 6 9 13 16 19 21 20 17 14 14 25 32 31 32 31 29 28 25 25 24 25 28 34 38 39 40 40 39 39 40 42 42 43 46 48 42 27 19 17 20 26 27 26 27 27 28 31
23 23 23 24 22 18 13 10 9 9 9 8 7 6 6 5 6 8 10 9 7 9 10 10 10 9 9 8 7 7 7 6 8 7 7 8 4 3 4 4 4 5 9 12 16 19 21 20 18 16 15 23 31 31 31 29 27 25 24 23 23 25 27 32 37 38 40 38 38 41 41 42 43 44 43 46 48 34 21 19 18 22 27 27 27 27 28 32
24 23 23 23 23 22 19 14 11 9 9 8 8 7 6 5 5 6 9 10 8 7 9 10 10 9 9 8 8 7 6 6 6 4 4 7 6 3 3 4 5 5 8 12 15 18 21 21 18 17 17 22 29 30 29 27 25 23 22 21 22 25 27 32 37 38 40 40 40 41 41 43 45 47 45 45 50 43 26 20 18 19 23 25 27 28 27 29
24 23 23 22 22 23 22 19 16 12 10 9 9 9 7 6 5 5 7 9 9 7 7 9 9 9 9 8 8 6 7 6 5 4 3 6 6 3 3 4 5 5 7 11 13 17 20 20 19 18 18 21 26 27 26 25 22 20 20 21 22 25 29 33 37 39 40 41 41 42 43 45 47 48 48 47 51 51 35 21 19 18 21 23 24 27 27 26
24 24 23 23 22 22 22 22 20 17 13 12 11 11 9 7 6 5 5 7 9 8 7 8 9 9 8 8 8 6 7 7 5 5 3 6 7 3 3 4 5 5 6 9 12 15 19 19 19 18 19 20 23 26 24 23 21 19 21 23 24 27 31 35 38 39 40 41 40 41 42 45 48 48 48 46 48 54 41 22 19 19 19 22 22 25 27 27
24 24 24 23 23 22 22 22 22 21 18 15 15 13 11 9 7 5 5 5 7 8 7 7 8 8 8 8 7 6 9 8 6 6 3 6 8 4 3 4 5 5 6 8 10 13 16 17 17 17 18 19 23 25 22 20 20 20 23 25 27 29 33 36 38 39 41 42 42 42 43 46 47 43 46 48 46 53 47 27 21 21 19 20 21 23 24 27
23 23 23 23 23 22 22 22 22 22 21 19 18 16 14 11 9 6 5 5 5 7 7 6 7 7 8 7 6 8 10 8 6 6 4 5 8 4 3 4 5 6 6 7 9 10 11 13 15 15 16 20 23 23 19 17 19 22 26 28 29 32 34 37 39 40 41 42 42 45 46 44 39 37 44 50 48 50 51 39 28 24 23 21 21 22 22 24
20 21 22 22 23 23 22 22 21 21 21 21 20 19 17 14 11 8 6 5 4 6 7 7 6 6 7 5 7 10 9 6 5 6 5 5 7 5 3 4 5 5 6 7 8 8 8 10 12 13 15 21 23 22 18 17 20 25 28 30 32 36 37 39 41 40 42 42 40 43 45 37 31 35 42 47 49 49 50 46 34 26 26 25 22 21 21 22
17 18 19 20 21 22 22 22 21 21 21 21 21 20 19 17 14 11 8 5 4 5 6 7 6 6 6 5 7 10 8 5 4 6 6 5 6 6 4 4 5 5 6 7 7 8 8 8 11 12 15 21 22 20 18 18 23 27 30 31 34 38 39 40 42 42 42 43 41 40 40 34 30 35 38 40 46 48 49 48 36 26 25 26 25 22 20 21
15 15 16 17 18 19 20 22 21 21 21 21 21 20 19 18 17 14 10 7 5 5 5 7 7 6 5 4 7 10 7 6 5 6 7 6 6 7 5 4 5 6 6 7 7 7 8 8 10 12 16 22 21 20 20 21 26 29 30 34 35 37 40 41 42 42 41 41 41 42 40 36 34 36 36 37 41 46 51 51 41 28 23 25 26 25 23 20
16 15 15 16 16 16 17 19 21 21 21 21 21 20 19 19 17 16 14 9 6 5 5 7 7 7 5 6 9 10 7 6 7 7 6 7 9 8 7 5 5 6 6 6 7 7 8 9 10 12 17 22 21 19 22 30 35 31 29 33 36 38 40 42 43 42 40 38 37 40 39 35 35 37 38 37 39 47 51 52 48 35 25 25 25 26 25 21
19 18 17 17 16 16 15 16 18 19 20 20 21 20 19 18 17 17 16 13 9 5 5 6 7 7 5 7 11 12 11 7 6 7 5 8 13 13 9 6 5 5 6 6 7 7 7 9 10 13 18 23 22 18 22 37 43 35 31 33 35 38 40 41 44 43 42 41 36 34 34 35 35 36 38 36 37 45 49 49 48 40 29 26 26 27 26 24
21 20 20 19 19 18 16 15 15 16 17 18 19 20 19 19 18 17 16 15 12 8 6 6 8 8 8 9 10 12 15 12 7 6 5 7 15 18 13 9 6 5 6 6 6 7 7 8 10 13 18 22 23 18 20 35 41 34 32 34 35 40 40 37 37 37 38 41 40 35 33 33 33 34 37 36 35 38 43 45 44 40 32 26 26 27 26 25
20 20 21 21 21 20 19 18 16 14 13 13 16 18 19 18 18 17 16 16 14 12 9 8 8 8 9 10 12 15 16 14 9 7 8 9 16 23 18 12 8 5 5 6 6 7 7 8 10 12 16 21 23 20 18 27 35 32 30 32 36 42 41 33 30 30 30 34 36 34 33 31 31 33 34 36 36 34 38 45 47 44 35 29 27 27 27 27
17 19 19 20 20 20 21 21 19 15 13 11 11 14 17 17 17 17 16 16 16 15 11 9 8 7 6 6 11 18 18 15 11 11 14 14 18 24 19 14 11 7 5 6 6 6 7 7 9 12 16 21 22 20 17 20 28 32 33 33 37 42 41 34 32 32 29 30 30 30 32 32 30 32 32 35 36 33 32 35 41 42 36 31 29 28 28 28
14 16 17 18 19 20 20 21 21 18 14 11 9 11 13 14 17 17 16 14 15 16 13 10 9 6 5 5 7 16 21 19 13 14 21 21 21 24 19 15 14 9 6 6 6 6 7 7 9 13 17 20 22 19 16 16 20 27 33 34 34 37 40 39 38 36 32 30 29 30 32 32 31 32 34 35 35 33 29 24 26 32 33 32 30 29 28 29
12 13 15 16 17 18 19 19 20 20 17 12 9 9 10 12 16 18 17 13 11 14 13 10 9 6 4 5 6 11 21 23 15 14 23 25 22 23 20 17 15 10 6 6 6 6 6 7 9 13 16 19 21 19 16 15 16 21 26 26 25 27 33 37 38 38 37 35 32 31 31 32 32 34 36 36 33 33 34 29 25 27 29 29 28 29 29 30
11 12 13 14 16 17 17 18 19 19 18 14 10 8 8 11 15 18 20 16 10 10 12 10 9 6 5 5 6 10 17 22 19 16 24 27 23 23 22 19 16 11 7 5 6 6 6 7 8 11 13 17 20 19 16 15 15 18 20 20 20 22 27 32 34 36 39 37 34 33 33 34 34 36 37 37 36 36 38 38 35 32 27 24 23 25 29 27
11 11 11 12 14 15 16 17 17 18 18 16 12 8 8 10 14 19 23 21 13 8 10 10 7 6 6 6 6 9 13 19 21 18 23 27 25 24 23 21 17 13 8 5 6 6 6 7 8 9 11 14 18 18 17 15 14 16 18 19 19 20 24 28 30 34 37 37 34 33 38 37 34 36 35 35 37 39 39 39 39 36 29 27 29 29 29 26
13 12 11 11 12 13 15 16 16 17 17 17 14 10 9 9 14 21 24 24 17 10 10 11 10 9 8 7 6 6 10 15 18 19 22 24 24 24 23 21 19 15 10 6 6 6 6 7 7 8 10 12 16 18 16 15 14 14 17 19 18 18 21 26 29 30 36 40 34 34 45 43 33 32 34 34 36 37 38 37 37 38 35 35 38 36 31 26
14 13 11 11 11 12 14 15 15 16 16 17 15 12 10 9 16 23 24 26 21 11 10 14 17 17 14 12 8 5 9 11 13 19 24 23 23 23 22 21 20 17 12 7 7 7 6 6 7 8 9 11 15 18 16 14 14 15 17 19 19 17 18 23 28 30 34 38 32 32 42 43 34 30 31 33 35 35 37 36 34 37 38 38 39 39 36 29
14 14 13 12 11 11 12 14 15 15 15 17 16 14 11 10 18 23 24 32 27 13 11 15 19 23 22 20 14 7 8 10 10 19 24 25 25 23 23 22 19 18 15 10 10 8 6 6 7 9 9 11 15 17 16 14 14 15 17 18 17 16 17 19 23 27 29 30 32 34 37 41 36 29 30 32 34 36 36 34 33 34 36 37 38 39 39 35
13 14 13 13 12 11 11 12 14 14 15 16 15 15 11 11 20 24 29 37 28 13 14 16 17 22 23 23 19 10 9 10 12 18 21 24 26 24 22 22 20 17 14 12 12 9 7 6 7 10 11 13 16 17 16 14 14 15 16 18 16 15 17 16 16 19 23 30 38 38 37 43 40 29 30 33 33 35 33 30 30 29 30 33 35 37 38 37
13 13 13 13 13 12 11 12 13 14 15 14 15 14 11 13 22 26 32 33 22 15 18 17 15 18 19 21 21 14 10 11 16 19 20 23 27 24 22 20 19 18 15 12 11 10 9 7 6 10 14 14 14 16 16 14 14 15 15 17 17 17 17 16 16 17 23 35 41 36 36 43 41 29 29 34 32 30 26 23 24 25 28 29 30 33 35 37
12 13 13 13 13 13 11 11 12 13 14 14 15 13 11 15 23 32 39 32 21 19 18 15 15 16 18 21 22 18 13 12 17 22 22 23 26 25 22 19 19 19 17 14 11 10 11 9 7 10 13 14 14 16 16 14 15 14 15 16 17 17 16 16 17 18 31 44 38 30 32 38 39 32 28 29 24 20 19 18 20 23 25 26 27 29 31 35
13 12 13 13 13 13 12 12 12 13 13 14 14 13 12 14 21 36 42 30 20 19 18 18 19 18 21 23 21 21 18 14 18 24 24 23 26 27 23 21 20 19 20 19 15 12 11 11 11 10 12 14 15 15 15 15 16 14 15 17 16 18 17 19 22 26 43 49 31 23 32 41 43 33 23 21 16 16 19 18 19 20 21 22 22 23 26 31
15 12 12 12 13 13 12 13 12 12 13 13 14 14 12 16 26 34 34 25 19 19 20 22 21 19 21 21 20 22 20 17 19 24 25 23 24 26 23 20 20 20 21 21 20 17 14 12 11 11 12 14 15 15 15 15 15 15 16 16 17 20 21 30 40 41 45 41 23 23 35 43 44 31 20 21 18 17 19 18 18 19 19 20 21 21 23 27
17 14 12 11 12 12 12 13 12 12 13 13 14 14 12 22 31 28 23 22 18 17 20 24 23 21 21 18 17 19 20 19 19 22 24 24 24 24 22 18 17 18 19 20 21 19 16 13 11 11 12 14 14 15 14 14 15 15 15 15 18 23 27 40 52 47 41 32 22 26 36 42 41 29 19 19 17 15 16 18 19 19 19 20 21 22 23 25
18 17 14 11 11 12 12 12 12 12 13 12 13 13 15 26 31 22 18 19 16 16 20 21 20 19 17 15 14 16 19 20 20 21 23 25 25 24 23 21 18 18 19 19 19 19 18 16 11 9 11 13 14 15 14 15 15 14 15 15 16 20 23 33 43 40 33 29 26 31 39 42 36 22 13 12 13 15 16 17 20 21 21 21 21 24 24 25
18 18 16 13 10 11 11 12 12 12 12 12 12 13 16 22 22 18 17 16 15 16 17 17 17 16 15 12 11 15 20 21 20 20 22 25 25 24 23 22 20 20 20 19 19 18 18 18 13 9 9 11 13 14 14 14 14 14 15 14 14 16 15 18 25 25 23 28 34 36 37 34 24 13 10 11 13 16 18 19 20 20 21 20 20 22 23 24
18 18 17 15 11 10 10 11 12 12 12 12 12 12 14 15 15 15 16 16 17 18 18 18 18 17 15 12 12 17 21 21 21 21 21 23 24 24 23 22 20 20 20 19 18 17 17 16 14 10 8 9 12 13 14 14 14 14 14 14 14 14 14 14 16 19 23 29 33 32 30 27 23 17 13 12 15 17 18 18 18 17 17 19 18 18 21 23
17 17 17 16 12 10 10 10 11 11 11 12 11 11 12 13 13 13 14 17 20 22 23 23 21 19 19 17 18 20 20 21 21 21 21 22 23 24 23 22 21 21 21 20 19 17 16 15 14 12 9 8 10 12 13 13 14 14 13 14 14 13 14 14 17 25 32 34 31 26 25 25 26 23 14 12 16 16 15 15 15 16 17 18 17 16 19 22
17 17 18 17 13 10 9 9 10 10 10 10 11 11 12 12 13 13 13 14 19 25 27 26 24 21 20 18 18 17 17 18 18 18 20 22 23 23 24 23 22 22 21 22 20 18 17 16 14 14 11 9 8 11 13 12 13 13 12 13 13 14 15 14 18 25 31 38 36 26 24 25 24 20 13 12 15 13 13 13 14 16 16 15 15 15 18 20
18 17 17 16 14 11 8 8 9 9 10 10 10 11 11 12 12 13 13 12 15 21 25 26 25 22 21 20 17 15 15 15 15 16 18 20 22 22 23 23 22 22 22 22 21 19 18 16 15 15 13 11 9 9 11 12 12 12 12 13 12 13 14 14 17 18 21 38 43 28 26 27 20 14 11 12 14 13 13 14 13 14 14 13 15 16 17 19
18 17 15 14 14 11 8 8 8 9 10 10 10 11 11 12 12 12 13 12 12 15 18 21 22 21 20 20 18 17 17 16 15 18 18 19 20 20 20 21 21 21 22 21 22 21 19 17 16 15 14 13 11 10 10 11 12 12 12 13 12 12 14 13 16 15 15 33 42 33 31 26 13 11 12 11 13 14 13 14 13 13 13 14 15 16 17 19
17 15 13 14 15 14 11 8 8 10 14 14 12 11 11 11 12 12 12 13 13 13 14 15 16 18 18 18 19 18 18 17 16 18 18 17 17 17 18 19 19 20 20 21 21 21 20 18 17 16 15 14 13 11 10 10 11 12 12 12 12 12 13 14 19 18 13 21 29 29 28 20 11 11 12 11 13 12 11 11 12 12 12 14 15 15 17 19
16 14 12 14 16 17 18 16 13 14 20 22 17 13 12 10 10 11 11 13 14 13 14 14 13 14 14 14 16 16 18 19 18 17 16 14 15 17 20 23 25 24 21 19 20 20 19 18 17 16 16 15 14 13 12 12 11 12 12 12 12 12 12 14 19 18 14 16 18 19 19 15 11 11 11 11 12 10 10 10 11 13 13 14 14 14 16 19
15 12 11 13 13 13 16 20 22 22 25 27 24 16 12 10 9 10 11 14 16 16 16 16 15 15 14 14 16 18 20 21 19 16 14 14 16 19 22 28 32 31 26 20 19 19 19 18 17 17 16 14 13 13 13 13 13 13 13 12 12 12 11 12 14 13 13 16 17 19 22 16 11 11 10 10 10 9 10 10 10 13 15 15 15 15 17 19
14 11 9 9 10 11 13 18 25 31 29 25 23 17 12 10 9 10 12 13 15 15 15 15 14 14 14 15 16 17 21 23 20 18 18 18 19 20 24 30 33 34 30 24 20 18 18 18 17 18 19 18 16 15 14 13 14 14 14 14 13 13 12 12 12 12 13 14 14 19 24 17 10 11 10 9 10 9 9 10 10 12 14 14 16 16 18 19
15 12 12 14 11 10 16 21 27 37 36 26 20 16 11 10 10 10 12 13 18 23 24 20 16 13 12 12 14 17 22 23 22 22 21 19 19 21 26 31 33 33 32 27 22 19 18 17 17 18 23 24 22 19 15 13 13 13 14 14 14 14 13 12 12 14 15 14 12 15 17 13 10 11 10 9 10 10 10 11 11 11 13 14 16 17 18 18
15 12 13 19 20 17 24 31 33 43 47 39 30 24 17 13 13 14 17 24 34 41 40 34 27 22 17 14 14 17 20 21 21 22 21 17 19 22 26 31 33 33 32 28 23 20 19 17 16 16 18 19 18 15 13 12 13 13 13 14 14 14 14 12 13 14 14 13 14 13 11 11 10 10 10 11 11 11 11 12 11 11 12 14 16 17 17 17
15 14 11 16 23 30 42 51 49 51 56 53 46 41 35 29 25 26 33 43 50 51 47 42 37 33 28 21 18 18 19 20 20 21 20 17 19 24 28 31 33 33 33 30 23 19 19 18 17 16 15 15 14 12 11 11 12 13 13 13 13 13 13 12 12 12 12 15 17 13 11 11 11 9 10 11 11 11 11 11 12 12 12 13 15 16 17 17
16 18 18 18 24 36 52 66 68 65 64 61 55 51 48 46 45 46 50 54 55 52 49 44 37 35 33 29 26 24 23 25 24 21 20 18 19 24 28 30 31 31 33 33 26 19 18 18 17 16 16 15 14 13 12 11 11 12 13 13 13 13 12 11 12 11 11 14 15 12 11 11 10 9 10 10 11 11 11 12 12 12 13 13 14 16 17 18
16 16 16 16 19 25 36 52 64 70 71 68 63 57 53 52 55 58 58 57 54 51 50 48 41 38 37 34 33 32 29 30 28 22 19 19 21 26 29 30 31 30 31 34 32 24 19 18 17 17 16 15 15 15 14 14 12 11 11 12 12 12 13 12 12 12 11 12 12 11 11 11 10 10 10 10 11 11 11 12 13 12 12 12 13 15 17 18
16 15 13 12 13 14 16 24 37 52 63 66 63 61 59 57 58 59 59 58 54 49 52 54 48 44 43 41 38 34 30 29 29 24 19 19 22 27 31 32 33 32 31 33 35 31 24 20 18 17 17 16 16 16 15 15 15 13 12 11 10 11 13 12 12 12 12 12 11 11 11 11 10 10 10 10 11 11 11 11 12 12 11 11 13 15 16 17
16 16 15 13 11 12 13 14 17 26 39 49 52 57 61 62 62 61 61 60 55 49 51 56 54 48 49 49 45 41 38 32 28 26 23 21 23 28 31 33 34 34 33 32 34 34 30 24 21 19 19 17 15 15 15 14 14 14 13 12 11 11 12 12 11 11 11 11 11 12 12 11 10 10 11 10 10 11 11 11 12 12 12 12 14 15 16 18
17 16 16 14 13 13 13 14 15 17 22 29 38 47 55 61 64 63 60 59 58 52 48 52 55 51 51 53 50 47 43 33 25 26 26 23 23 27 30 32 34 36 35 34 34 35 34 30 27 27 26 21 17 15 14 13 15 16 14 12 12 12 11 11 11 10 10 10 10 11 11 11 11 11 11 10 10 11 11 10 11 12 12 14 15 16 17 19
Wind_Speed
14 14 14 14 15 15 15 16 16 17 17 18 18 18 18 18 16 15 14 14 14 14 16 18 19 20 21 21 20 20 19 19 18 19 19 15 18 25 27 28 28 29 27 23 21 19 18 16 13 13 12 13 14 15 15 13 11 9 10 11 10 10 12 13 9 8 8 4 6 8 9 5 4 5 5 8 10 7 10 12 10 12 13 15 14 13 15 15
14 14 15 15 15 15 15 16 16 17 17 18 18 18 18 18 17 16 14 14 14 14 15 16 17 19 20 20 20 20 19 19 18 17 16 14 19 23 24 26 29 30 29 25 23 21 20 18 15 14 14 14 15 16 17 14 12 11 10 10 9 9 12 12 8 8 7 1 3 7 7 5 4 7 7 8 11 10 11 12 12 13 14 16 15 13 14 14
15 15 15 15 15 15 15 16 16 16 17 18 18 18 18 18 18 17 16 14 14 14 14 15 15 17 18 19 20 20 20 19 17 16 15 16 18 21 23 25 28 31 30 27 24 22 22 21 18 16 16 15 14 16 17 16 14 13 11 10 8 8 10 12 11 9 7 1 2 6 7 6 3 8 8 8 9 10 10 9 9 11 14 16 15 14 15 15
16 16 16 15 16 16 16 16 16 16 17 17 18 18 18 18 17 17 17 16 14 14 15 15 15 15 17 18 19 20 19 18 17 16 15 16 18 21 23 25 27 30 31 29 26 25 24 22 20 18 16 15 15 16 17 16 14 12 13 12 9 8 11 13 14 12 9 4 2 4 8 7 6 8 8 7 7 9 9 6 6 8 12 15 15 15 15 16
17 17 16 16 16 16 16 16 16 17 17 17 18 18 18 18 17 16 17 17 16 15 15 16 15 15 16 17 18 19 19 16 14 15 14 14 18 21 23 25 27 29 31 30 28 27 26 24 21 19 17 15 14 16 15 13 13 13 12 12 12 10 11 14 16 14 12 8 5 4 6 6 7 9 8 7 5 6 8 8 9 9 10 13 14 15 15 16
18 18 18 17 17 16 16 16 16 17 17 17 17 18 19 19 18 17 16 17 18 16 15 16 15 16 15 16 17 18 18 13 10 12 11 12 17 21 23 24 26 29 32 32 30 29 28 25 22 20 18 15 14 15 15 12 13 15 13 12 14 12 11 15 18 16 14 11 6 4 4 6 6 8 7 4 3 4 6 8 9 9 8 10 12 13 14 15
17 18 18 18 18 17 17 16 16 17 17 18 17 18 19 19 19 18 16 16 18 17 16 16 16 16 16 17 17 18 19 13 11 13 10 10 16 21 24 25 26 29 32 33 31 30 29 27 24 20 18 16 15 15 15 14 13 16 16 14 14 13 12 16 19 17 15 9 4 6 6 6 4 5 5 5 5 3 6 8 8 10 9 9 11 11 13 13
17 18 18 18 19 18 18 17 17 17 17 18 18 18 18 19 20 19 17 16 17 18 17 17 17 17 17 17 17 19 18 14 14 16 12 11 16 21 24 25 26 29 32 34 32 31 29 28 25 22 20 17 16 16 15 15 13 14 17 15 14 17 16 19 20 17 16 11 8 9 7 5 4 3 2 4 6 4 5 8 8 10 9 9 9 10 12 13
17 18 18 18 19 19 19 18 17 17 17 17 17 18 18 19 20 20 19 17 18 18 18 19 18 18 18 17 19 17 15 15 16 15 13 13 16 22 25 26 27 29 32 34 33 31 31 29 26 23 21 18 18 16 14 15 13 12 15 14 15 20 21 22 21 18 17 14 12 10 9 8 7 5 4 5 7 5 5 8 9 9 8 9 9 10 10 11
17 17 18 18 18 19 19 19 18 18 17 17 17 17 18 18 19 20 20 18 18 18 18 19 18 19 18 17 19 15 10 14 15 14 15 14 16 22 25 27 29 30 32 34 33 32 31 30 27 25 22 19 18 14 10 12 13 12 12 13 17 22 24 23 22 19 18 15 11 10 9 8 7 7 7 6 8 8 7 9 11 9 8 9 9 9 10 10
17 17 18 18 19 19 19 19 19 19 18 17 16 17 18 18 19 20 20 20 19 19 19 19 19 20 19 19 19 12 10 15 15 15 16 16 17 23 27 28 30 31 32 33 33 32 31 30 28 26 22 19 17 11 9 11 12 12 14 15 18 22 23 23 22 20 20 18 14 11 8 7 8 7 7 6 7 9 8 9 11 11 10 9 10 10 10 10
17 17 18 18 18 19 19 19 19 19 18 17 17 17 18 18 19 20 20 20 19 19 19 18 20 20 20 20 15 10 13 17 16 14 16 17 18 23 28 30 31 32 33 33 33 32 31 30 29 26 21 19 16 10 7 11 12 13 17 19 20 21 23 24 23 21 20 20 17 14 11 9 8 5 8 9 8 10 11 11 11 12 12 11 11 12 11 12
17 17 18 18 18 18 19 19 19 19 19 18 17 17 18 18 19 20 20 21 20 20 19 19 20 20 22 18 9 11 16 17 15 13 15 18 19 23 29 31 32 33 34 35 34 32 31 30 29 27 23 19 15 10 7 9 12 15 18 20 23 24 25 26 25 23 22 20 15 15 13 10 7 5 9 11 11 12 13 14 14 13 15 14 13 13 13 13
17 17 18 18 18 18 18 19 19 19 19 19 18 18 19 19 19 20 20 21 20 20 19 19 20 20 22 15 6 12 17 15 13 12 14 17 19 22 28 31 32 33 35 35 35 33 31 31 29 27 26 20 13 9 8 10 12 18 20 21 25 28 28 28 27 26 25 22 16 15 13 10 8 7 8 10 12 14 14 16 16 15 16 16 16 15 15 14
18 17 17 18 18 19 19 19 19 19 19 19 19 19 19 19 20 20 20 21 21 21 20 20 21 21 21 14 9 14 16 14 13 14 15 16 18 21 26 30 32 33 35 35 35 34 32 32 31 28 25 22 15 8 8 14 16 21 24 23 27 30 29 29 29 28 26 22 19 18 15 11 9 8 7 10 12 14 15 15 17 16 16 16 17 17 17 15
19 18 18 18 18 19 19 19 19 19 19 19 19 19 19 19 20 20 21 21 21 21 21 21 20 21 21 14 11 14 16 15 15 17 19 18 18 21 24 29 32 33 34 35 35 34 34 33 31 29 25 23 19 11 10 17 19 24 27 26 30 32 31 32 32 30 26 21 20 20 16 11 8 8 9 11 11 14 15 16 17 17 16 16 18 19 19 18
20 20 19 18 18 19 19 19 19 19 20 20 20 20 20 20 20 21 21 21 21 21 21 22 21 21 20 14 12 13 14 16 17 18 21 21 20 21 23 27 31 33 34 35 35 34 34 33 32 31 27 24 23 17 14 20 23 26 28 28 32 33 33 34 33 32 30 25 19 18 17 13 9 7 9 10 9 13 15 16 17 17 16 17 18 20 20 20
22 21 20 19 19 19 20 20 20 20 20 21 21 20 20 20 20 21 21 21 21 21 21 21 20 21 17 11 12 14 14 15 17 19 22 23 22 22 23 25 29 33 34 34 34 34 34 34 33 31 29 27 26 23 19 23 28 30 30 32 35 35 34 33 31 29 30 28 22 19 19 17 14 11 9 9 9 11 13 13 14 16 17 17 18 20 20 20
23 22 21 20 19 20 20 20 20 20 20 22 22 21 20 20 20 21 21 22 22 22 21 21 20 21 16 10 9 12 16 17 17 21 23 24 23 23 24 25 28 31 34 34 34 34 34 34 34 33 33 30 28 26 20 22 27 31 32 34 36 35 35 32 27 23 23 25 25 22 21 18 16 14 10 8 8 8 10 12 13 14 16 17 17 19 21 20
23 23 22 21 20 20 21 20 20 21 21 22 22 22 20 20 21 21 20 21 22 22 22 22 23 23 19 14 10 11 16 18 19 23 24 25 24 23 24 25 26 29 32 34 33 34 34 35 37 38 36 32 29 26 19 18 21 27 32 32 32 33 34 32 27 23 21 22 23 23 22 20 18 15 11 8 8 8 10 13 15 15 16 17 17 18 20 18
23 23 23 21 20 21 21 21 20 21 21 22 23 22 21 21 22 22 21 19 17 19 21 22 24 23 18 14 12 14 18 20 23 25 25 26 26 25 25 25 26 29 32 32 31 33 35 37 40 39 36 31 29 25 20 18 18 23 29 28 27 30 32 32 29 26 23 23 22 21 22 22 19 17 13 11 10 7 6 8 10 13 15 16 16 17 17 16
23 23 23 22 20 21 22 21 20 21 21 23 23 22 22 22 22 22 23 21 16 14 16 18 22 23 17 12 12 17 22 23 25 26 26 27 27 26 26 25 25 28 31 31 31 33 35 39 41 37 35 31 28 26 23 20 19 21 25 22 22 26 29 30 29 27 25 25 23 21 23 23 20 19 17 15 13 8 5 6 7 10 14 14 15 16 17 17
23 23 22 21 20 20 22 21 20 21 21 22 23 22 22 22 22 23 23 24 20 14 14 14 18 22 19 14 14 20 25 26 25 27 27 28 29 28 26 26 25 25 30 32 34 35 34 38 40 36 34 33 30 28 25 24 21 21 23 20 17 20 26 29 28 26 26 27 26 23 23 24 21 21 22 19 16 13 10 9 9 11 12 11 10 12 14 16
23 23 22 21 20 19 21 21 20 21 21 21 22 21 21 20 21 22 22 25 24 17 16 14 15 19 20 17 17 21 26 28 27 27 28 30 30 29 27 26 25 26 29 32 34 35 33 34 38 36 34 34 32 30 28 26 24 23 24 23 16 15 22 28 27 24 25 27 27 24 21 25 26 24 25 22 19 19 17 14 14 15 14 11 11 13 13 13
22 22 22 21 20 19 20 21 19 20 21 21 21 20 19 19 18 20 21 23 25 20 15 11 10 13 15 16 18 20 24 30 30 26 27 32 32 31 29 26 27 28 29 31 31 34 34 32 35 36 35 35 34 32 30 28 26 24 25 25 18 11 16 24 25 21 21 25 30 25 15 19 28 28 27 25 23 24 21 19 18 17 17 17 16 15 14 13
22 22 21 21 20 19 19 19 19 20 20 20 21 20 18 17 16 17 18 20 23 19 11 9 8 7 8 9 13 17 22 29 31 26 26 31 32 31 30 28 29 29 27 28 28 31 34 32 32 34 36 35 34 34 32 29 27 25 27 26 19 13 14 18 24 22 21 24 30 30 21 14 21 29 29 27 26 26 25 23 22 20 19 21 20 17 15 14
22 22 21 20 20 19 17 18 18 19 19 18 19 18 16 16 14 14 14 13 13 11 8 8 6 6 9 8 9 15 19 21 26 28 27 28 31 31 30 30 30 29 27 26 27 31 34 34 32 32 35 36 36 36 34 31 28 26 28 25 18 18 16 15 20 21 24 27 24 29 31 18 19 29 28 26 28 28 28 28 26 24 22 22 22 20 19 17
22 22 21 19 19 20 18 17 18 18 18 18 19 17 15 14 11 10 7 3 6 9 8 7 5 6 10 8 7 13 18 17 19 26 27 27 28 29 30 31 30 28 28 28 29 30 30 35 36 32 33 36 38 38 34 31 30 29 28 23 20 20 18 16 15 15 23 26 18 24 31 17 20 34 28 23 29 30 31 30 27 27 24 22 22 21 21 19
22 22 22 20 18 19 18 18 19 18 16 17 18 16 14 11 9 7 2 1 7 8 5 7 8 8 10 8 8 10 18 19 15 17 25 28 27 27 28 29 29 27 26 28 30 27 24 30 36 34 33 36 39 38 35 32 30 30 27 25 23 19 16 14 12 15 20 21 19 27 31 17 18 35 31 24 29 30 28 26 24 26 25 24 22 20 21 21
22 22 22 21 19 19 18 19 21 19 16 16 17 15 13 11 11 7 4 5 8 8 9 11 8 4 5 6 7 8 14 20 17 13 21 29 26 25 26 25 26 25 23 25 28 28 22 23 31 35 34 35 36 35 35 34 30 29 28 26 24 19 17 12 12 18 16 12 22 32 36 26 15 29 36 31 30 28 23 19 20 23 24 23 22 20 21 22
22 22 23 22 20 19 18 19 21 19 16 16 16 15 14 13 15 9 4 9 12 11 10 6 5 5 3 3 5 8 10 18 19 13 19 29 27 24 26 25 24 23 23 25 25 27 26 23 25 31 34 34 33 32 34 33 31 29 27 26 21 13 11 6 9 17 9 6 24 33 36 31 18 27 38 35 33 31 25 21 19 21 21 18 17 18 19 21
22 22 22 22 22 20 19 20 20 18 18 17 16 16 16 15 17 16 10 10 9 8 6 5 7 6 5 4 4 6 8 15 22 19 18 26 27 26 28 27 27 24 23 27 26 24 28 30 27 26 29 33 33 31 31 31 31 29 27 26 17 6 4 3 4 8 7 12 25 30 30 27 26 38 43 39 38 34 31 26 20 20 21 19 16 15 17 21
22 22 22 22 23 22 22 22 19 18 19 19 17 17 19 14 14 22 24 17 9 7 7 6 7 6 0 3 3 5 7 11 21 25 21 21 22 26 29 28 29 27 22 23 26 25 23 26 32 31 27 31 35 34 31 32 32 30 30 28 17 6 3 3 2 0 4 15 23 26 21 18 27 38 37 35 32 29 29 27 23 24 24 22 19 16 16 18
23 23 22 22 23 24 24 22 20 19 20 21 19 19 22 17 12 19 27 26 20 16 14 10 9 10 10 11 7 5 5 7 16 25 27 25 23 25 31 30 29 29 26 22 24 27 20 17 30 38 34 33 36 36 33 32 34 33 33 32 27 17 8 4 5 4 6 9 13 16 12 10 20 25 23 22 23 24 26 27 30 31 28 25 25 23 22 19
23 23 23 22 24 24 24 23 21 21 21 22 22 23 28 25 20 22 25 27 27 25 24 23 24 22 19 16 10 6 4 3 10 20 26 28 26 25 30 34 31 29 29 25 21 25 24 23 28 35 37 38 37 35 34 31 31 31 32 32 32 29 21 11 8 10 11 5 5 12 11 13 24 27 21 17 19 23 25 27 31 32 30 28 26 26 26 22
23 23 23 24 25 24 24 24 22 22 23 24 25 30 35 31 27 25 22 23 24 24 25 24 22 18 14 11 8 5 3 1 4 14 21 26 27 25 28 33 33 31 31 29 24 21 21 25 28 28 34 41 38 34 34 34 30 26 28 32 32 30 27 18 11 11 10 4 5 11 11 16 24 26 24 22 20 20 21 25 28 27 29 31 27 25 26 24
23 23 23 24 25 25 24 24 23 24 24 26 31 35 36 33 31 28 24 22 20 18 16 13 9 8 7 6 6 8 6 2 3 6 12 18 24 27 28 29 31 33 32 30 29 25 21 22 25 25 30 38 40 35 33 36 35 30 29 31 27 22 22 20 10 3 3 2 5 12 17 20 20 18 19 23 25 22 21 25 29 31 32 32 29 27 26 25
22 23 24 24 24 25 25 24 24 25 25 28 34 36 34 33 32 30 29 27 22 17 13 10 8 8 8 8 9 10 8 5 4 5 6 10 15 22 28 29 29 32 31 31 31 30 25 21 21 22 23 29 37 38 35 35 35 34 33 30 24 18 18 20 12 2 3 2 2 10 18 22 25 23 19 20 23 22 22 25 30 33 33 31 29 28 28 26
22 22 24 24 23 23 24 25 25 25 26 31 35 34 34 33 31 29 29 29 28 25 20 17 15 13 13 14 16 17 15 13 12 10 8 7 9 14 20 23 26 29 30 34 35 32 28 24 20 19 19 23 31 39 42 41 36 34 32 28 26 22 18 20 19 12 8 4 2 6 8 15 26 28 20 18 19 19 21 22 22 24 26 27 26 28 29 28
22 22 24 24 22 22 23 24 26 27 29 34 35 33 32 31 30 29 29 29 31 31 28 26 24 23 23 23 22 20 17 15 13 11 8 7 9 12 13 14 19 24 27 32 36 36 33 28 24 21 19 22 30 37 44 45 40 36 34 31 29 27 20 17 19 19 13 5 4 4 4 13 23 22 19 19 17 16 17 17 15 16 17 19 23 27 30 28
22 22 22 23 22 20 21 23 26 28 30 33 33 32 31 30 29 29 28 28 31 32 31 30 28 27 26 24 22 20 18 17 15 12 11 12 12 11 9 8 11 17 24 31 36 38 37 33 30 26 24 27 31 33 38 42 40 37 37 37 34 31 25 15 11 18 19 11 7 5 4 13 19 18 19 20 17 15 17 18 18 17 15 15 18 23 26 27
22 21 22 23 22 19 19 21 23 27 29 31 30 30 30 30 30 29 27 25 25 26 26 27 27 27 28 27 25 22 18 17 16 14 14 15 13 10 6 4 7 11 20 30 35 35 36 36 34 32 33 34 31 26 26 31 35 35 34 38 39 36 34 24 12 14 19 17 13 8 5 10 16 16 17 16 15 17 17 19 20 17 15 16 15 17 23 27
22 20 20 23 22 19 19 19 21 25 28 28 28 29 30 30 30 29 27 24 22 21 22 22 23 23 23 23 21 18 15 15 17 16 15 14 13 11 6 6 10 11 16 26 33 35 36 36 35 33 35 39 36 33 29 25 27 28 27 31 36 37 39 36 28 26 23 20 16 8 4 10 15 18 19 18 18 21 21 22 20 16 16 18 16 16 21 26
22 20 20 22 22 20 19 19 19 23 25 26 27 28 29 30 30 29 26 25 23 23 23 24 24 23 22 20 19 18 14 14 15 13 12 12 13 12 7 6 11 15 16 22 31 35 34 35 34 25 18 22 27 29 33 34 33 32 29 28 29 31 33 34 36 34 26 24 25 14 6 12 18 21 24 24 23 25 25 24 22 18 17 17 17 17 21 25
21 19 17 18 20 20 19 19 21 22 23 25 27 28 28 29 29 28 26 24 22 20 21 22 22 22 22 22 21 20 18 18 17 14 14 15 14 13 8 6 11 16 17 18 26 31 34 38 37 26 13 10 14 17 27 37 39 37 36 32 28 26 26 27 30 29 23 26 30 23 14 17 20 20 21 21 21 21 20 20 20 18 17 19 19 19 20 23
21 18 15 13 15 18 19 19 21 22 22 24 25 26 27 27 26 24 23 21 19 17 18 19 18 18 20 22 22 22 22 22 21 21 21 19 16 15 9 5 9 12 17 15 22 29 35 39 41 38 33 29 29 30 32 33 32 33 36 35 32 27 24 25 26 28 28 27 29 31 27 23 22 21 19 17 17 17 17 18 19 19 18 19 20 20 20 22
20 19 18 14 12 15 19 20 21 22 22 22 22 22 22 22 22 21 20 19 17 15 17 18 18 18 19 22 23 25 25 23 23 26 27 24 19 16 10 6 8 9 14 13 17 29 33 35 38 41 43 42 41 39 38 35 31 30 31 33 33 29 27 28 28 30 32 27 25 32 33 28 27 28 22 17 15 15 15 17 19 18 16 17 19 22 24 25
19 18 19 18 15 14 17 19 22 23 22 21 21 20 18 17 17 18 18 18 17 15 15 18 19 20 20 20 21 24 25 23 24 28 29 26 22 19 15 9 7 8 10 13 10 26 30 32 35 38 40 42 42 40 40 40 38 35 32 30 28 26 25 27 27 28 31 30 29 34 35 33 34 33 28 22 18 16 15 15 17 17 16 15 17 23 27 26
20 19 18 20 20 17 17 18 20 22 22 21 21 20 19 18 17 17 18 17 17 15 15 17 18 18 18 18 20 24 25 23 23 27 29 27 23 20 18 12 9 11 8 11 3 18 26 29 31 33 37 40 41 41 41 43 42 41 41 38 33 30 28 28 27 26 29 32 33 36 38 39 39 36 32 27 22 21 19 16 17 19 16 14 16 21 27 27
21 20 19 20 21 18 18 19 19 20 22 22 21 20 19 19 19 19 18 17 16 16 16 17 17 17 16 18 22 25 25 24 23 24 28 28 26 22 18 12 9 10 7 7 4 7 17 25 26 28 32 36 38 38 39 40 42 42 43 43 41 40 39 38 35 31 30 31 33 35 39 41 40 37 35 29 24 24 24 20 20 21 17 16 18 22 26 27
22 21 20 21 21 18 17 18 18 19 19 20 21 21 20 19 19 19 17 16 16 17 19 18 16 18 17 18 22 24 23 26 26 25 27 27 26 24 22 14 7 7 8 6 6 9 9 15 19 18 22 31 36 35 34 36 39 41 44 44 43 43 42 41 38 35 33 32 32 36 41 42 40 38 38 35 29 24 23 22 23 23 20 19 20 22 26 29
23 22 21 22 22 19 17 17 17 18 18 18 20 21 21 19 19 19 16 14 14 18 21 19 17 17 16 16 19 22 22 24 25 24 25 28 28 27 25 20 11 11 12 10 11 13 12 9 11 12 15 24 31 33 35 32 26 29 38 40 39 40 41 40 39 37 35 33 33 36 37 37 39 40 39 37 32 27 25 24 24 24 23 22 22 25 28 29
Wind_Direction
298 294 292 292 295 300 304 304 304 305 306 306 304 302 302 299 292 284 282 284 283 276 269 264 263 263 262 261 259 258 256 254 253 246 242 234 232 231 225 224 228 228 224 223 224 227 235 235 231 227 231 231 222 215 208 210 209 206 199 197 212 224 226 221 212 186 176 158 153 167 163 175 359 54 133 128 132 155 139 138 144 143 150 155 156 147 142 143
306 299 295 293 293 296 300 303 304 302 303 306 306 303 302 301 296 286 281 282 285 283 275 267 263 263 262 263 260 258 257 255 253 247 244 236 231 229 223 221 223 224 222 220 221 223 230 230 226 224 228 227 221 219 216 219 222 220 217 213 221 228 236 239 225 195 190 168 141 172 174 187 9 61 115 121 132 145 130 128 138 143 148 151 152 146 141 139
314 308 301 296 294 295 297 301 303 303 302 303 305 305 302 302 299 290 282 279 282 285 282 273 266 263 262 263 262 260 258 255 254 252 248 236 228 226 220 218 218 221 220 218 218 220 224 226 224 223 225 225 219 219 216 220 226 229 234 236 238 223 230 238 224 212 206 221 146 170 179 182 90 78 111 117 129 137 124 113 119 133 138 142 148 144 139 137
315 314 309 302 297 294 295 298 301 303 302 301 303 305 304 301 300 294 285 279 279 282 284 279 270 265 263 262 263 262 259 258 258 253 247 232 223 220 215 213 213 215 216 216 215 216 219 221 223 224 224 222 218 217 214 218 227 235 244 249 256 232 227 236 225 218 213 224 274 167 172 173 113 91 101 101 126 138 130 117 109 121 125 132 141 141 140 140
314 314 314 311 304 298 295 296 298 302 302 302 301 302 304 302 300 297 287 280 277 278 283 282 275 268 264 262 262 262 262 264 262 252 245 231 220 217 212 209 209 210 212 212 212 213 215 220 222 224 224 217 213 212 208 214 227 239 252 258 266 251 233 231 221 216 213 211 229 195 165 158 117 105 98 82 104 134 134 133 131 132 125 127 134 137 140 142
313 313 313 313 311 306 299 296 296 299 301 302 301 301 302 301 300 298 291 281 276 275 279 281 279 272 267 263 260 260 260 257 254 249 241 227 216 213 209 206 205 206 209 209 209 211 213 218 220 222 223 212 205 205 202 209 228 246 257 262 265 255 236 227 216 210 210 210 217 206 166 163 133 120 126 114 117 144 156 147 138 139 139 138 139 139 139 142
310 311 311 311 312 311 307 302 298 297 299 300 302 301 299 300 300 298 295 284 275 273 274 279 279 275 271 265 260 258 254 244 242 245 233 218 210 207 206 202 201 203 206 207 207 209 211 216 218 220 222 211 203 202 206 216 233 255 264 265 258 239 229 224 214 208 211 216 208 205 200 191 157 125 143 154 154 181 181 166 150 143 149 156 149 144 141 141
308 308 309 309 310 311 311 308 304 300 298 299 301 301 299 298 297 298 296 288 278 272 270 275 277 277 274 269 263 255 252 246 241 240 231 219 207 202 203 199 198 200 203 205 206 208 210 215 218 219 220 213 206 206 216 228 241 265 269 264 245 222 216 214 209 208 210 212 207 212 214 197 175 150 159 156 159 189 192 179 168 154 153 159 157 154 149 147
305 306 307 308 308 309 310 310 309 306 303 302 302 301 299 296 295 297 296 292 284 274 269 270 274 277 274 272 268 256 251 250 242 236 226 217 205 198 199 196 195 198 201 204 204 207 209 214 217 218 219 215 212 215 226 236 246 267 265 248 226 211 206 205 204 206 205 204 206 209 207 200 193 188 194 174 170 189 199 188 179 169 162 163 166 166 162 157
301 303 304 305 306 307 308 308 309 309 309 308 307 304 300 296 294 294 294 293 288 280 272 268 272 275 274 273 267 256 248 250 242 231 219 211 204 195 194 195 194 196 199 202 204 206 209 213 217 217 219 218 216 223 232 242 253 258 240 217 209 204 199 200 201 203 204 203 206 210 207 206 211 212 211 196 185 194 205 193 184 183 178 178 180 175 174 168
297 299 301 302 303 304 305 306 307 308 310 311 312 309 303 299 296 293 293 293 291 287 277 269 269 272 274 271 263 257 251 246 236 224 211 204 201 191 191 193 192 194 197 201 203 206 210 213 217 218 219 220 218 220 233 249 255 235 207 191 195 197 194 199 202 200 202 203 203 213 217 210 219 224 215 222 211 198 202 200 190 190 192 193 194 189 185 179
295 295 296 298 299 301 303 303 305 306 308 310 310 309 306 304 300 295 293 292 291 289 283 274 268 269 272 268 261 261 254 242 233 223 208 203 200 190 190 192 191 193 195 199 202 206 211 213 216 217 217 219 216 211 228 249 243 212 193 186 186 191 194 199 203 201 200 201 197 199 212 215 223 227 206 222 231 208 203 205 201 199 201 203 204 203 197 191
294 294 294 295 295 297 299 300 302 304 306 307 306 306 306 307 305 300 295 293 291 289 287 277 269 269 271 266 259 259 251 241 234 227 213 205 201 192 191 193 193 193 195 198 201 204 209 212 215 216 216 216 210 207 224 239 222 194 187 189 183 184 195 199 202 202 200 205 200 193 211 225 221 220 210 219 230 221 211 206 206 206 207 209 209 210 208 203
292 292 293 294 293 294 295 296 298 300 303 304 303 302 304 307 307 304 300 294 291 288 287 281 273 271 271 267 258 255 248 239 233 231 224 211 205 199 193 195 195 194 196 199 201 204 208 211 213 214 215 212 200 197 214 218 204 188 185 192 190 186 193 198 200 201 199 205 208 201 219 240 233 226 214 217 227 229 225 216 211 210 210 213 211 211 213 209
291 290 291 292 292 293 292 293 294 296 299 300 300 300 302 306 307 308 305 299 293 289 288 283 277 276 275 272 260 250 242 234 225 222 225 213 207 206 198 197 199 197 198 200 203 206 209 211 212 212 212 211 197 174 189 196 194 192 187 189 195 193 192 196 198 202 202 205 206 206 222 242 239 238 221 215 224 227 232 227 218 215 214 215 213 212 213 209
289 289 290 290 292 292 291 292 292 293 294 294 296 297 300 304 306 310 310 305 297 290 288 284 280 279 278 276 265 250 239 232 223 218 215 206 206 209 203 201 202 201 200 202 204 206 210 211 211 211 210 208 196 173 169 180 184 193 195 192 196 196 192 193 198 203 207 209 206 205 219 237 237 236 226 219 222 224 229 227 223 222 218 217 216 213 213 209
287 287 288 289 291 291 292 291 291 291 292 291 292 293 297 302 306 309 312 311 303 293 289 285 284 281 276 274 263 251 243 235 228 223 212 200 200 205 207 205 204 205 204 204 205 207 210 211 212 210 208 205 198 189 176 175 178 185 193 197 197 198 194 192 196 200 205 212 218 217 220 231 241 249 239 221 217 222 224 223 221 222 220 218 217 215 214 211
284 285 285 287 288 290 291 291 291 291 290 289 289 289 293 298 303 306 308 310 307 300 292 286 285 279 273 270 256 246 243 237 226 221 212 200 199 204 207 207 206 207 208 208 207 207 209 211 213 211 208 204 200 200 188 180 183 183 189 196 196 197 197 196 198 199 203 209 220 229 228 230 239 252 253 227 218 221 219 220 220 219 221 220 218 218 215 214
282 282 282 284 285 287 288 290 291 290 289 289 288 289 292 295 299 303 306 309 309 306 296 286 280 275 269 263 257 243 237 234 219 209 206 202 202 206 207 208 208 209 210 211 207 206 209 209 210 210 208 204 200 204 199 186 191 190 190 195 196 197 200 203 204 203 206 211 218 228 234 238 242 249 254 238 227 218 208 212 213 213 218 219 218 217 216 217
280 279 280 281 282 284 285 287 289 289 290 288 287 290 291 292 295 298 302 305 307 307 299 290 282 277 272 259 251 242 233 230 215 201 201 202 203 205 207 207 209 210 211 212 209 207 209 211 212 210 207 204 200 203 202 188 192 196 193 195 200 203 207 208 208 208 212 218 224 229 234 240 248 255 261 250 232 221 212 210 208 208 213 217 216 213 215 217
281 279 279 278 279 281 282 284 286 288 289 288 289 290 290 292 293 296 298 296 297 301 299 294 285 280 278 262 244 237 232 227 216 202 198 202 202 204 205 205 209 210 208 209 211 209 210 214 215 211 208 205 202 204 204 193 189 196 199 203 211 218 220 214 211 213 214 220 228 232 233 237 247 255 255 242 237 247 235 221 215 210 212 216 216 212 211 205
281 280 279 277 276 278 279 281 283 284 286 288 289 290 291 293 295 299 302 298 293 298 300 291 281 280 281 263 234 229 228 224 217 205 200 204 204 204 206 206 208 210 207 204 207 209 212 216 215 210 208 205 203 205 209 206 199 195 200 211 224 231 230 223 219 218 216 220 227 232 234 235 243 249 251 248 253 275 274 247 236 219 217 220 217 210 203 199
280 280 279 277 275 275 277 278 279 282 283 285 288 290 291 293 297 300 304 305 301 307 318 300 277 276 277 262 232 226 226 224 218 208 203 208 208 207 209 209 207 209 207 204 205 208 213 216 213 209 208 206 204 206 211 213 211 206 206 211 225 233 232 227 223 221 218 219 224 230 235 237 240 243 246 250 254 256 252 245 235 220 218 223 230 222 210 205
281 279 278 277 274 272 274 275 276 279 279 281 284 288 288 289 295 298 302 306 303 313 329 313 277 267 267 259 240 228 225 225 221 211 208 211 210 211 214 213 209 208 208 206 207 211 214 215 212 209 208 207 205 207 211 214 215 216 216 216 221 234 234 229 224 222 220 220 225 228 232 238 239 241 244 246 246 242 238 237 231 219 208 207 225 229 221 217
284 281 278 276 274 270 271 273 274 276 276 278 280 282 284 285 290 295 301 305 304 314 330 320 294 275 267 257 244 231 226 228 223 214 213 215 214 215 217 215 212 210 208 206 208 214 216 215 212 210 208 207 207 209 212 214 217 220 221 219 218 232 239 229 224 222 215 219 227 225 225 240 239 241 246 243 243 241 237 239 238 226 211 207 213 216 216 218
288 285 280 277 274 268 268 271 273 273 273 275 276 278 281 282 285 291 300 307 306 314 336 341 332 310 295 276 249 229 227 233 226 217 215 216 218 219 219 218 215 212 209 206 210 217 215 211 213 212 209 208 208 209 212 215 218 223 223 218 213 224 234 225 220 215 210 221 230 226 224 240 241 243 245 241 243 245 242 246 247 237 224 218 215 212 214 218
289 287 283 279 275 270 264 266 271 271 271 271 272 276 277 278 279 286 303 315 308 311 334 337 336 326 322 311 260 226 225 236 228 217 215 215 219 221 220 219 217 212 208 207 213 220 215 207 209 211 208 209 209 209 211 213 217 224 223 217 212 221 229 225 221 221 225 230 232 226 226 238 253 250 248 242 243 245 244 248 251 246 239 231 223 219 220 221
287 287 285 282 277 273 265 261 264 267 268 267 269 273 272 271 271 280 305 338 299 307 326 323 316 328 329 319 280 236 227 237 229 216 213 214 218 220 219 219 219 215 210 209 213 218 216 208 207 206 205 209 211 210 211 213 219 225 223 218 218 226 233 234 236 240 235 228 220 221 223 230 253 250 249 244 242 246 250 253 255 253 249 241 232 225 223 225
286 285 284 282 278 274 268 262 262 263 263 262 265 269 265 259 251 250 235 225 283 295 313 311 299 309 318 304 293 258 231 230 229 219 212 211 215 218 219 219 219 219 217 218 219 218 218 213 210 209 208 210 212 211 212 215 220 225 224 224 226 234 240 243 258 251 229 216 215 222 220 217 246 249 245 238 240 248 255 257 259 257 254 249 241 234 228 225
283 283 281 280 277 272 266 264 264 262 258 257 259 259 254 240 223 208 174 223 277 290 287 296 286 281 320 297 284 273 235 219 220 227 214 209 213 216 218 219 219 222 224 227 228 223 220 214 213 215 213 212 213 213 214 217 222 225 225 227 231 240 244 244 245 231 215 210 226 231 225 218 236 252 246 244 249 255 258 260 262 259 255 249 242 238 232 228
281 281 280 278 275 270 263 261 263 260 256 252 251 249 241 225 213 199 188 242 269 287 280 273 200 159 62 346 307 297 251 212 208 217 210 205 208 213 215 215 214 219 226 230 232 228 222 214 213 218 219 214 212 213 216 218 222 224 224 227 230 237 242 233 209 208 195 223 237 237 229 216 220 249 253 258 264 264 262 263 265 263 260 253 241 237 235 232
277 277 278 276 272 269 263 258 257 256 254 248 244 240 226 217 215 209 210 238 265 275 245 205 189 167 93 66 15 327 274 220 203 201 201 204 209 215 217 216 211 210 219 225 227 231 229 222 214 214 219 217 213 213 215 217 219 220 222 224 221 206 207 192 172 193 197 223 236 238 228 217 227 246 256 263 266 266 264 263 264 264 265 262 252 240 236 233
274 273 274 274 270 267 263 260 255 250 251 246 241 234 217 212 222 218 218 225 237 249 234 216 206 194 359 334 1 346 293 244 214 207 210 216 222 223 221 221 217 214 218 221 222 228 233 229 220 215 215 215 215 216 214 214 217 217 219 220 212 172 129 206 226 59 217 229 238 237 228 223 235 248 259 261 261 265 264 261 263 265 267 266 262 255 246 239
271 270 269 269 268 265 261 262 255 244 246 243 237 228 215 214 226 224 226 231 238 249 248 248 253 254 273 284 305 331 308 268 231 220 221 228 235 230 223 221 219 220 223 223 224 225 227 230 221 217 216 213 214 218 217 217 221 222 224 227 223 211 193 200 202 175 201 225 229 218 209 218 235 250 263 259 257 261 261 261 263 265 266 266 264 259 251 243
268 268 267 265 264 263 260 260 255 243 240 239 234 224 217 217 222 225 232 238 244 253 256 262 273 275 272 267 277 304 297 277 241 229 228 233 237 232 223 220 218 218 221 223 225 224 228 237 228 219 219 217 214 217 218 218 223 227 227 228 228 226 225 227 221 217 216 208 186 187 192 226 244 257 260 251 257 259 257 262 263 261 261 260 259 254 248 242
265 264 265 264 262 261 258 256 254 246 239 236 231 226 225 227 229 231 237 242 246 254 261 267 273 275 273 259 243 232 229 255 221 225 231 236 239 238 229 224 223 221 221 222 223 221 226 239 238 226 222 221 218 218 219 219 221 223 222 224 227 231 235 235 232 230 224 222 209 195 205 234 249 261 255 244 252 251 243 248 249 248 250 251 251 248 246 240
263 261 261 262 261 260 257 253 251 246 241 237 233 232 235 237 237 237 239 241 245 249 255 262 257 252 264 248 206 194 199 140 131 211 234 236 241 243 237 233 231 230 228 226 226 227 230 241 243 234 227 224 220 219 221 224 225 224 225 228 226 226 233 231 221 208 194 222 230 211 218 227 232 250 253 243 243 241 231 230 234 239 246 249 248 245 243 239
263 259 257 258 258 258 257 252 248 246 240 237 236 238 241 241 240 241 240 239 242 243 240 238 237 247 261 259 242 232 244 265 267 284 273 239 238 243 241 240 238 237 237 233 230 231 233 241 244 238 232 226 220 220 222 222 223 227 231 234 226 214 217 216 210 185 176 215 256 217 221 223 223 234 246 242 237 236 233 231 235 241 244 245 242 239 239 235
266 261 259 257 255 254 254 251 248 245 238 234 236 239 242 242 242 243 243 241 242 242 240 240 243 246 251 258 264 264 271 278 276 288 293 252 235 238 240 244 244 242 240 236 233 232 232 236 241 236 233 225 218 220 223 221 221 227 231 233 229 223 218 214 216 212 196 201 227 216 220 221 225 233 240 237 231 229 233 234 235 238 239 236 229 227 229 225
270 266 264 261 257 253 250 247 244 240 237 236 238 240 243 245 245 244 244 244 243 243 243 245 248 253 257 264 270 272 277 280 276 284 287 256 244 244 240 248 255 251 246 240 236 235 231 230 235 233 227 224 218 217 220 221 221 223 224 224 224 224 223 224 227 222 209 192 173 183 223 222 225 234 235 228 220 221 233 239 241 246 247 240 227 222 223 220
270 268 268 264 262 259 251 245 242 239 239 240 241 241 243 245 246 246 246 245 244 245 246 248 251 254 258 262 265 270 277 278 273 274 271 256 255 260 247 242 260 260 250 240 234 233 230 228 232 231 226 228 226 223 224 224 225 228 229 227 225 224 224 225 233 227 222 222 205 187 215 221 225 233 230 223 222 233 248 256 257 258 253 239 232 230 226 219
271 269 269 263 261 261 253 247 242 238 239 241 241 241 241 241 243 245 246 246 246 247 248 250 251 251 255 259 262 267 272 272 267 260 256 253 253 255 253 275 292 276 256 246 239 236 233 230 232 234 235 236 233 229 229 225 226 232 236 237 236 233 229 223 222 226 223 225 224 217 233 227 224 231 231 226 233 242 253 259 259 254 237 222 226 234 227 216
271 269 269 264 260 258 252 248 242 239 239 240 239 238 237 237 239 241 242 242 241 241 241 243 245 246 248 251 256 260 261 263 262 252 247 250 248 246 262 323 312 293 269 254 246 239 230 226 228 233 240 243 239 239 237 225 219 223 228 233 234 235 234 232 236 240 232 222 218 213 235 227 223 233 237 236 244 251 258 263 257 242 228 221 224 231 222 211
271 267 268 266 262 258 253 248 242 240 240 238 237 236 234 236 238 239 240 240 240 242 243 243 244 244 244 245 251 254 249 250 251 240 232 237 238 238 256 308 303 296 281 255 245 239 226 219 221 224 234 243 240 240 239 234 231 231 229 229 230 233 234 235 238 239 235 230 226 218 212 227 236 245 241 238 247 257 263 263 252 240 234 227 225 226 216 206
274 268 267 268 264 257 251 245 240 238 238 236 235 234 233 235 237 238 242 244 242 240 241 242 241 241 242 243 246 246 239 239 241 235 228 227 229 233 248 306 311 308 299 263 243 241 233 224 221 217 207 220 228 229 232 232 235 238 240 240 239 235 231 232 234 231 229 233 229 222 223 236 245 252 247 242 247 258 263 253 243 245 243 229 221 219 213 207
282 271 263 262 260 254 249 242 237 237 237 238 237 235 234 235 236 237 240 242 236 228 232 235 230 229 231 231 235 238 238 240 243 245 241 230 227 230 238 300 316 319 320 284 237 234 237 232 228 225 223 227 232 235 236 235 235 238 241 242 241 237 231 232 231 226 228 232 228 229 236 239 240 247 250 248 248 257 260 247 243 249 241 223 214 211 211 211
284 276 266 260 253 247 244 241 237 237 238 240 240 238 237 237 236 235 235 235 230 225 232 235 226 223 224 224 228 234 236 238 237 240 241 233 228 231 233 275 294 304 336 320 239 225 229 231 231 232 233 235 237 240 242 241 238 239 240 240 238 237 235 234 233 232 233 231 229 236 239 236 241 247 247 243 244 250 250 246 246 242 226 215 212 210 212 212
278 275 269 264 254 241 237 237 236 235 237 241 241 238 236 233 233 234 232 231 228 225 235 241 232 228 227 225 231 235 238 242 237 233 235 233 233 237 237 244 253 260 329 343 249 221 222 228 233 235 238 241 241 241 243 243 244 244 243 240 236 233 236 238 242 244 239 235 239 246 245 243 248 252 248 244 245 242 241 242 236 222 211 213 217 216 215 213
275 270 266 263 259 251 243 241 240 235 233 238 242 241 237 232 231 234 234 234 232 223 230 241 235 230 231 229 236 239 237 241 241 231 229 231 232 237 240 240 227 231 299 350 271 217 222 230 235 236 241 246 245 244 245 244 245 246 246 246 242 240 245 249 255 260 254 249 252 253 252 252 254 256 254 251 248 242 242 242 226 212 209 214 217 218 218 216
274 271 265 260 259 257 252 249 248 243 236 236 242 242 239 237 236 238 239 241 238 224 224 234 227 219 222 227 238 244 241 242 242 231 227 228 227 229 236 241 230 230 270 342 355 239 233 233 234 235 240 245 245 245 246 245 246 248 249 251 250 249 253 256 260 263 258 256 256 252 251 253 254 256 255 251 246 244 246 243 225 214 216 219 217 219 220 218
273 272 268 262 260 258 255 252 254 252 243 238 241 241 236 235 237 241 243 243 240 231 231 237 226 213 215 227 240 247 246 243 237 231 231 230 224 227 230 226 240 278 290 305 327 324 284 242 237 243 247 247 245 243 244 246 248 249 250 251 252 251 253 256 259 260 258 259 258 252 250 251 251 255 255 248 242 241 240 236 227 223 228 228 221 221 222 219
271 271 270 267 264 258 253 252 252 253 249 241 240 239 235 233 235 240 240 235 235 237 238 240 235 221 219 229 239 243 243 238 231 228 233 229 222 225 228 225 246 292 302 303 306 315 317 284 268 282 273 257 249 244 244 244 243 244 247 251 253 252 253 254 256 257 260 261 259 256 255 253 251 252 250 242 238 239 237 235 235 234 233 229 224 224 223 216